KD9YTS-13 Weather Reports


time (UTC)temp
C
wind
direction
speed
KPH
gust
KPH
rain 1hr
cm
rain 24hr
cm
rain mn
cm
humidity
%
barometer
mb
20260503223622 -17 0 11.3 0.0 0.00 0.00 0.00 100
20260503221622 -17 289 12.9 0.0 0.00 0.00 0.00 100
20260503215622 -17 301 9.7 0.0 0.00 0.00 0.00 100
20260503213622 20 0 6.4 0.0 0.00 0.00 0.00 3
20260503205622 -17 0 11.3 0.0 0.00 0.00 0.00 100
20260503203622 -17 309 16.1 0.0 0.00 0.00 0.00 100
20260503201622 -17 252 12.9 0.0 0.00 0.00 0.00 100
20260503195623 21 0 22.5 0.0 0.00 0.00 0.00 3
20260503193622 -17 0 9.7 0.0 0.00 0.00 0.00 100
20260503191622 -17 0 3.2 0.0 0.00 0.00 0.00 100
20260503185622 -17 285 4.8 0.0 0.00 0.00 0.00 100
20260503183622 20 0 4.8 0.0 0.00 0.00 0.00 3
20260503181622 -17 0 4.8 0.0 0.00 0.00 0.00 100
20260503175622 -17 0 12.9 0.0 0.00 0.00 0.00 100
20260503173622 -17 0 3.2 0.0 0.00 0.00 0.00 100
20260503081623 -17 0 1.6 0.0 0.00 0.00 0.00 100
20260503071622 9 0 0.0 0.0 0.00 0.00 0.00 5
20260503053623 9 0 0.0 0.0 0.00 0.00 0.00 5
20260503051622 -17 0 0.0 0.0 0.00 0.00 0.00 100
20260503045623 -17 0 0.0 0.0 0.00 0.00 0.00 100
20260503043622 -17 0 0.0 0.0 0.00 0.00 0.00 100
20260503041622 9 0 0.0 0.0 0.00 0.00 0.00 4
20260503035622 9 0 0.0 0.0 0.00 0.00 0.00 4
20260503033622 -17 0 0.0 0.0 0.00 0.00 0.00 100
20260503025623 -17 0 0.0 0.0 0.00 0.00 0.00 100
20260503023623 8 0 0.0 0.0 0.00 0.00 0.00 4
20260503021622 8 0 0.0 0.0 0.00 0.00 0.00 4
20260503015622 -17 0 0.0 0.0 0.00 0.00 0.00 100
20260503013622 -17 0 0.0 0.0 0.00 0.00 0.00 100
20260503011622 11 0 0.0 0.0 0.00 0.00 0.00 4
20260503005623 12 0 0.0 0.0 0.00 0.00 0.00 3
20260503003622 12 0 0.0 0.0 0.00 0.00 0.00 3
20260503001622 -17 0 4.8 0.0 0.00 0.00 0.00 100
20260502235622 -17 318 11.3 0.0 0.00 0.00 0.00 100
20260502233622 -17 302 11.3 0.0 0.00 0.00 0.00 100
20260502231622 15 0 8.0 0.0 0.00 0.00 0.00 2
20260502225622 -17 0 4.8 0.0 0.00 0.00 0.00 100